Location: *
(40.7873°S, 98.7174°E)
Time: 00:22:39
(UTC+00:00)

ARIANE 6 FM1 Upper Stage - Pass Details

Date: 24 December 2025
Orbit: 522 x 610 km, 62.0° (Epoch: 20 January)

Event Time Altitude Azimuth Distance (km) Brightness Sun altitude
Rises 15:33:49 0° 206° (SSW) 2,912 7.9 -20.8°
Reaches altitude 10° 15:36:50 10° 186° (S) 1,997 6.5 -21.1°
Maximum altitude 15:39:51 17° 144° (SE) 1,561 5.2 -21.3°
Enters shadow 15:42:41 11° 103° (ESE) 1,931 5.3 -21.6°
